Date_and_time,latitude,longitude,wind_speed,RelWindDirFrom,WindDirFrom,air_pressure,air_temperature,relative_humidity,Temp,platform_speed_wrt_ground,air_pressure_at_mean_sea_level,platform_orientation
2018-09-22 23:50,50.630455,-96.98077,15.5,19.2,36,996.76,5.3,68,11.78,0.0,1024.30,194.5
2018-09-23 00:00,50.6304566666667,-96.9807666666667,14.5,18.3,35,996.90,5.1,69,11.75,0.0,1024.45,336.5
2018-09-23 00:10,50.630455,-96.9807666666667,12.5,16.1,42,996.91,5.0,70,11.74,0.0,1024.47,336.5
2018-09-23 00:20,50.630455,-96.9807666666667,11.0,14.3,56,996.83,5.0,70,11.74,0.0,1024.39,336.5
2018-09-23 00:30,50.630455,-96.9807666666667,11.9,15.6,62,996.75,5.2,69,11.73,0.0,1024.29,336.5
2018-09-23 00:40,50.630455,-96.980765,9.6,13.1,64,996.99,5.4,67,11.71,0.0,1024.54,336.5
2018-09-23 00:50,50.6304316666667,-96.980775,12.3,16.6,67,996.96,5.7,65,11.70,0.0,1024.51,336.5
2018-09-23 01:00,50.630435,-96.9807833333333,13.8,18.3,51,997.01,5.9,58,11.70,0.0,1024.58,221.2
2018-09-23 01:10,50.6304516666667,-96.9807616666667,14.1,21.9,56,997.17,6.0,58,11.69,0.0,1024.73,221.2
2018-09-23 01:20,50.6304416666667,-96.9807516666667,13.9,18.4,58,997.20,6.1,59,11.67,0.0,1024.75,221.2
2018-09-23 01:30,50.6304666666667,-96.9807683333333,14.4,19.8,62,997.10,6.0,57,11.67,0.0,1024.65,221.2
2018-09-23 01:40,50.6304633333333,-96.9807583333333,15.3,21.6,60,997.18,5.9,58,11.65,0.0,1024.73,221.2
2018-09-23 01:50,50.63046,-96.9807583333333,15.6,20.3,62,997.26,5.9,58,11.63,0.0,1024.83,221.2
2018-09-23 02:00,50.63046,-96.9807583333333,14.7,19.2,57,997.22,5.9,57,11.59,0.0,1024.79,3.2
2018-09-23 02:10,50.6304616666667,-96.9807616666667,15.1,19.7,55,997.33,5.9,58,11.59,0.0,1024.91,3.2
2018-09-23 02:20,50.63046,-96.9807616666667,14.9,19.3,65,997.38,5.9,58,11.58,0.0,1024.94,3.2
2018-09-23 02:30,50.63046,-96.9807633333333,14.0,17.7,67,997.58,5.7,56,11.57,0.0,1025.16,3.2
2018-09-23 02:40,50.6304583333333,-96.9807633333333,15.3,20.0,66,997.54,5.7,56,11.56,0.0,1025.09,3.2
2018-09-23 02:50,50.6304583333333,-96.9807633333333,15.9,20.4,61,997.51,5.8,59,11.55,0.0,1025.05,3.2
2018-09-23 03:00,50.63046,-96.9807633333333,16.9,22.1,59,997.49,5.8,58,11.54,0.0,1025.02,360.0
2018-09-23 03:10,50.6304483333333,-96.9807633333333,17.1,23.0,58,997.50,5.7,58,11.51,0.0,1025.03,360.0
2018-09-23 03:20,50.63045,-96.9807683333333,17.0,23.9,58,997.59,5.6,57,11.48,0.0,1025.14,360.0
2018-09-23 03:30,50.6304466666667,-96.9807633333333,18.0,21.9,58,997.65,5.6,58,11.47,0.0,1025.20,360.0
2018-09-23 03:40,50.6304483333333,-96.9807666666667,17.3,23.5,59,997.69,5.6,58,11.48,0.0,1025.24,360.0
2018-09-23 03:50,50.6304483333333,-96.98077,17.6,21.6,59,997.71,5.6,58,11.46,0.0,1025.27,360.0
2018-09-23 04:00,50.6304483333333,-96.9807683333333,19.5,23.6,57,997.66,5.5,57,11.44,0.0,1025.22,49.4
2018-09-23 04:10,50.6304533333333,-96.9807766666667,19.5,24.2,64,997.59,5.7,59,11.44,0.0,1025.14,49.4
2018-09-23 04:20,50.6304533333333,-96.980775,19.1,22.8,70,997.64,5.6,57,11.44,0.0,1025.20,49.4
2018-09-23 04:30,50.6304533333333,-96.980775,18.5,22.7,69,997.68,5.6,57,11.40,0.0,1025.24,49.4
2018-09-23 04:40,50.6304516666667,-96.980775,17.9,22.5,68,997.66,5.6,59,11.35,0.0,1025.22,49.4
2018-09-23 04:50,50.6304533333333,-96.980775,19.1,23.3,66,997.63,5.6,60,11.33,0.0,1025.19,49.4
2018-09-23 05:00,50.6304516666667,-96.980775,19.5,25.0,71,997.64,5.6,61,11.32,0.0,1025.20,240.8
2018-09-23 05:10,50.6304533333333,-96.9807766666667,19.3,24.1,79,997.81,5.5,58,11.29,0.0,1025.39,240.8
2018-09-23 05:20,50.630455,-96.9807683333333,18.8,23.3,76,997.89,5.4,59,11.27,0.0,1025.47,240.8
2018-09-23 05:30,50.6304533333333,-96.9807683333333,19.5,23.3,77,997.87,5.3,58,11.27,0.0,1025.46,240.8
2018-09-23 05:40,50.63045,-96.9807633333333,19.7,23.4,71,997.80,5.2,59,11.25,0.0,1025.39,240.8
2018-09-23 05:50,50.63045,-96.9807616666667,20.0,25.2,73,997.68,5.3,58,11.23,0.0,1025.27,240.8
2018-09-23 06:00,50.630445,-96.9807633333333,20.1,23.8,72,997.74,5.2,57,11.22,0.0,1025.32,360.0
2018-09-23 06:10,50.6304533333333,-96.980755,21.8,26.2,70,997.69,5.2,57,11.19,0.0,1025.28,360.0
2018-09-23 06:20,50.6304433333333,-96.9807433333333,20.1,24.3,73,997.71,5.2,56,11.18,0.0,1025.30,360.0
2018-09-23 06:30,50.6304483333333,-96.980765,20.6,26.0,75,997.81,5.1,55,11.17,0.0,1025.40,360.0
2018-09-23 06:40,50.6304466666667,-96.9807633333333,19.9,24.4,71,997.86,5.2,56,11.17,0.0,1025.46,360.0
2018-09-23 06:50,50.6304466666667,-96.9807616666667,20.1,25.2,72,997.82,5.2,55,11.16,0.0,1025.42,360.0
2018-09-23 07:00,50.63045,-96.9807633333333,20.1,25.0,74,997.88,5.1,55,11.16,0.0,1025.49,360.0
2018-09-23 07:10,50.6304533333333,-96.9807616666667,20.1,24.8,70,997.93,5.0,53,11.14,0.0,1025.54,360.0
2018-09-23 07:20,50.6304533333333,-96.9807633333333,20.4,25.6,70,997.86,5.1,54,11.11,0.0,1025.47,360.0
2018-09-23 07:30,50.63047,-96.9807566666667,20.5,25.3,72,998.08,5.2,53,11.10,0.0,1025.70,360.0
2018-09-23 07:40,50.6304566666667,-96.9807583333333,21.2,27.4,69,997.70,5.1,54,11.11,0.0,1025.31,360.0
2018-09-23 07:50,50.63045,-96.98076,21.8,25.6,72,997.74,5.1,53,11.10,0.0,1025.35,360.0
2018-09-23 08:00,50.63045,-96.98076,22.2,26.0,71,997.65,5.1,55,11.10,0.0,1025.26,90.0
2018-09-23 08:10,50.6304516666667,-96.9807633333333,21.5,26.4,71,997.66,5.0,59,11.12,0.0,1025.28,90.0
2018-09-23 08:20,50.6304516666667,-96.980765,21.9,26.1,73,997.68,4.9,58,11.10,0.0,1025.31,90.0
2018-09-23 08:30,50.6304466666667,-96.980715,23.1,27.8,73,997.54,4.8,58,11.09,0.0,1025.17,90.0
2018-09-23 08:40,50.630445,-96.9807433333333,22.5,26.6,76,997.70,4.8,56,11.06,0.0,1025.33,90.0
2018-09-23 08:50,50.6304466666667,-96.9807483333333,23.0,27.3,75,997.63,4.8,55,11.06,0.0,1025.26,90.0
2018-09-23 09:00,50.6304466666667,-96.98075,22.1,27.2,78,997.59,4.8,56,11.05,0.0,1025.22,54.7
2018-09-23 09:10,50.6304483333333,-96.98075,22.4,26.9,75,997.46,4.8,57,11.04,0.0,1025.09,54.7
2018-09-23 09:20,50.6304583333333,-96.9807666666667,22.8,27.3,75,997.43,4.7,58,11.05,0.0,1025.06,54.7
2018-09-23 09:30,50.6304516666667,-96.9807666666667,22.1,27.6,78,997.54,4.7,59,11.05,0.0,1025.17,54.7
2018-09-23 09:40,50.6304483333333,-96.9807683333333,22.5,27.7,77,997.51,4.7,59,11.03,0.0,1025.15,54.7
2018-09-23 09:50,50.6304483333333,-96.98077,23.3,28.4,79,997.37,4.6,57,11.02,0.0,1025.00,54.7
2018-09-23 10:00,50.6304416666667,-96.9807583333333,24.0,28.1,77,997.35,4.6,57,10.99,0.0,1024.99,360.0
2018-09-23 10:10,50.6304483333333,-96.9807766666667,23.2,28.7,78,997.55,4.6,57,10.94,0.0,1025.19,360.0
2018-09-23 10:20,50.630445,-96.9807616666667,22.5,26.9,78,997.68,4.6,58,10.89,0.0,1025.34,360.0
2018-09-23 10:30,50.6304483333333,-96.980765,20.8,27.6,82,997.78,4.6,58,10.85,0.0,1025.44,360.0
2018-09-23 10:40,50.6304433333333,-96.9807666666667,21.4,27.6,81,997.75,4.6,58,10.84,0.0,1025.41,360.0
2018-09-23 10:50,50.6304416666667,-96.9807666666667,21.7,28.0,80,997.91,4.6,58,10.85,0.0,1025.57,360.0
2018-09-23 11:00,50.6304433333333,-96.9807666666667,21.3,27.0,79,997.89,4.6,59,10.83,0.0,1025.55,360.0
2018-09-23 11:10,50.6304466666667,-96.9807683333333,21.1,26.0,79,997.83,4.6,59,10.80,0.0,1025.50,360.0
2018-09-23 11:20,50.63045,-96.98077,20.0,24.6,81,997.67,4.6,61,10.79,0.0,1025.34,360.0
2018-09-23 11:30,50.63045,-96.98077,21.3,26.7,81,997.57,4.5,61,10.79,0.0,1025.23,360.0
2018-09-23 11:40,50.6304533333333,-96.9807766666667,20.8,26.0,80,997.59,4.5,62,10.77,0.0,1025.26,360.0
2018-09-23 11:50,50.6304533333333,-96.9807716666667,21.6,26.5,79,997.50,4.5,62,10.74,0.0,1025.17,360.0
2018-09-23 12:00,50.6304516666667,-96.98077,21.0,26.4,82,997.45,4.4,62,10.71,0.0,1025.12,305.3
2018-09-23 12:10,50.630455,-96.9807816666667,21.9,26.7,79,997.45,4.4,62,10.67,0.0,1025.12,305.3
2018-09-23 12:20,50.6304583333333,-96.9807766666667,21.8,26.1,79,997.51,4.5,63,10.64,0.0,1025.18,305.3
2018-09-23 12:30,50.6304516666667,-96.98076,21.2,27.0,80,997.67,4.4,62,10.60,0.0,1025.35,305.3
2018-09-23 12:40,50.6304266666667,-96.98077,19.9,25.2,81,997.77,4.4,63,10.58,0.0,1025.45,305.3
2018-09-23 12:50,50.6304383333333,-96.9807616666667,20.8,26.4,79,997.63,4.5,63,10.57,0.0,1025.30,305.3
2018-09-23 13:00,50.6304433333333,-96.9807633333333,21.6,26.2,77,997.65,4.4,63,10.57,0.0,1025.33,270.0
2018-09-23 13:10,50.6304466666667,-96.9807616666667,22.1,27.4,79,997.51,4.4,62,10.56,0.0,1025.18,270.0
2018-09-23 13:20,50.6304366666667,-96.9807666666667,20.2,25.8,81,997.59,4.5,64,10.54,0.0,1025.27,270.0
2018-09-23 13:30,50.63044,-96.98077,20.8,26.2,77,997.71,4.5,64,10.52,0.0,1025.39,270.0
2018-09-23 13:40,50.63044,-96.9807716666667,19.0,23.7,82,997.95,4.5,62,10.51,0.0,1025.64,270.0
2018-09-23 13:50,50.630445,-96.980775,19.8,25.1,82,997.74,4.5,63,10.48,0.0,1025.43,270.0
2018-09-23 14:00,50.63045,-96.9807733333333,20.3,26.5,80,997.63,4.5,63,10.44,0.0,1025.31,360.0
2018-09-23 14:10,50.63045,-96.9807733333333,20.1,26.5,82,997.44,4.6,63,10.43,0.0,1025.11,360.0
2018-09-23 14:20,50.6304433333333,-96.9807766666667,20.0,27.8,82,997.53,4.6,64,10.42,0.0,1025.20,360.0
2018-09-23 14:30,50.6304433333333,-96.980765,19.6,24.6,84,997.42,4.6,64,10.39,0.0,1025.09,360.0
2018-09-23 14:40,50.630445,-96.9807666666667,20.3,24.4,81,997.33,4.6,63,10.38,0.0,1025.00,360.0
2018-09-23 14:50,50.630455,-96.98076,20.0,25.3,80,997.22,4.6,63,10.38,0.0,1024.88,360.0
2018-09-23 15:00,50.630455,-96.9807633333333,20.1,24.3,78,997.16,4.6,64,10.36,0.0,1024.82,90.0
2018-09-23 15:10,50.6304516666667,-96.9807666666667,19.4,24.6,78,997.23,4.6,64,10.35,0.0,1024.89,90.0
2018-09-23 15:20,50.6304533333333,-96.980775,19.4,23.7,78,997.14,4.8,63,10.34,0.0,1024.78,90.0
2018-09-23 15:30,50.63046,-96.9807666666667,18.3,24.5,82,997.15,4.8,62,10.34,0.0,1024.79,90.0
2018-09-23 15:40,50.6304533333333,-96.980775,17.8,23.3,80,997.08,4.9,62,10.33,0.0,1024.72,90.0
2018-09-23 15:50,50.6304516666667,-96.9807733333333,16.7,21.9,78,997.28,5.1,62,10.32,0.0,1024.92,90.0
2018-09-23 16:00,50.63045,-96.9807733333333,15.8,22.0,79,997.27,5.1,61,10.33,0.0,1024.90,360.0
2018-09-23 16:10,50.6304733333333,-96.98075,16.8,21.9,78,996.90,5.2,61,10.32,0.0,1024.52,360.0
2018-09-23 16:20,50.6304566666667,-96.9807666666667,15.4,19.9,84,996.99,5.3,62,10.29,0.0,1024.60,360.0
2018-09-23 16:30,50.6304533333333,-96.98077,15.5,21.1,83,997.07,5.4,61,10.27,0.0,1024.68,360.0
2018-09-23 16:40,50.6304466666667,-96.98078,13.9,18.7,84,997.17,5.4,61,10.26,0.0,1024.79,360.0
2018-09-23 16:50,50.6304533333333,-96.9807733333333,12.9,18.1,88,997.21,5.5,61,10.25,0.0,1024.82,360.0
2018-09-23 17:00,50.6304533333333,-96.980775,14.2,19.4,86,996.88,5.7,62,10.26,0.0,1024.47,90.0
2018-09-23 17:10,50.630455,-96.9807733333333,13.7,18.7,89,996.64,5.9,62,10.25,0.0,1024.20,90.0
2018-09-23 17:20,50.6304566666667,-96.9807716666667,13.6,17.7,92,996.53,6.0,62,10.24,0.0,1024.09,90.0
2018-09-23 17:30,50.6304466666667,-96.9806983333333,13.9,19.6,80,996.33,5.9,61,10.23,0.0,1023.88,90.0
2018-09-23 17:40,50.6304483333333,-96.9807716666667,13.5,17.3,85,996.29,6.0,62,10.21,0.0,1023.83,90.0
2018-09-23 17:50,50.6304483333333,-96.9807683333333,13.4,19.3,83,996.28,6.0,61,10.22,0.0,1023.81,90.0
2018-09-23 18:00,50.6304516666667,-96.980765,14.7,19.6,86,996.01,6.2,62,10.22,0.0,1023.52,90.0
2018-09-23 18:10,50.6304466666667,-96.9807616666667,13.0,17.5,82,996.11,6.3,62,10.21,0.0,1023.62,90.0
2018-09-23 18:20,50.6304466666667,-96.9807633333333,13.4,20.3,82,995.99,6.3,62,10.23,0.0,1023.49,90.0
2018-09-23 18:30,50.630445,-96.9807533333333,13.4,18.1,87,995.91,6.4,62,10.23,0.0,1023.40,90.0
2018-09-23 18:40,50.6304483333333,-96.9807533333333,15.0,20.0,83,995.71,6.5,63,10.23,0.0,1023.18,90.0
2018-09-23 18:50,50.630445,-96.980755,13.9,19.5,87,995.54,6.5,63,10.21,0.0,1023.00,90.0
2018-09-23 19:00,50.63045,-96.9807683333333,14.1,21.4,84,995.55,6.5,63,10.20,0.0,1023.00,90.0
2018-09-23 19:10,50.63045,-96.9807683333333,14.4,19.2,87,995.40,6.3,65,10.20,0.0,1022.85,90.0
2018-09-23 19:20,50.6304516666667,-96.9807716666667,14.8,19.1,95,995.39,6.4,67,10.19,0.0,1022.85,90.0
2018-09-23 19:30,50.6304483333333,-96.98077,13.3,19.8,94,995.16,6.2,68,10.20,0.0,1022.61,90.0
2018-09-23 19:40,50.63045,-96.9807716666667,13.5,17.7,88,995.03,6.2,68,10.18,0.0,1022.47,90.0
2018-09-23 19:50,50.63046,-96.9807833333333,14.0,18.0,79,994.89,6.0,70,10.17,0.0,1022.33,90.0
2018-09-23 20:00,50.630455,-96.9807716666667,14.5,18.4,83,994.50,6.0,71,10.20,0.0,1021.93,0.0
2018-09-23 20:10,50.630455,-96.9807666666667,14.7,20.9,87,994.57,6.1,71,10.21,0.0,1021.99,0.0
2018-09-23 20:20,50.630455,-96.9807683333333,14.5,18.4,88,994.77,6.1,71,10.20,0.0,1022.19,0.0
2018-09-23 20:30,50.6304533333333,-96.9807683333333,15.6,21.7,87,994.38,6.0,71,10.18,0.0,1021.79,0.0
2018-09-23 20:40,50.6304533333333,-96.98077,15.8,20.6,84,994.27,6.0,72,10.16,0.0,1021.68,0.0
2018-09-23 20:50,50.6304533333333,-96.9807683333333,15.4,20.3,84,994.25,5.9,73,10.16,0.0,1021.66,0.0
2018-09-23 21:00,50.6304483333333,-96.9807433333333,15.7,20.8,88,994.17,5.9,73,10.14,0.0,1021.59,113.6
2018-09-23 21:10,50.6304516666667,-96.980755,15.4,18.8,89,994.16,6.0,75,10.12,0.0,1021.57,113.6
2018-09-23 21:20,50.6304616666667,-96.98076,16.0,21.1,86,994.07,6.0,76,10.10,0.0,1021.49,113.6
2018-09-23 21:30,50.630455,-96.9807666666667,16.0,20.9,83,993.95,6.0,77,10.10,0.0,1021.36,113.6
2018-09-23 21:40,50.6304533333333,-96.9807666666667,17.9,24.0,82,993.96,6.0,76,10.12,0.0,1021.38,113.6
2018-09-23 21:50,50.6304516666667,-96.9807666666667,16.6,22.4,84,993.84,6.1,76,10.11,0.0,1021.26,113.6
2018-09-23 22:00,50.6304516666667,-96.9807666666667,16.8,21.1,87,993.82,6.0,77,10.11,0.0,1021.24,0.0
2018-09-23 22:10,50.6304516666667,-96.9807683333333,16.9,22.1,85,993.75,6.0,78,10.09,0.0,1021.17,0.0
2018-09-23 22:20,50.630445,-96.9807666666667,15.9,21.3,81,993.65,6.0,80,10.08,0.0,1021.07,0.0
2018-09-23 22:30,50.6304483333333,-96.98077,16.3,23.7,83,993.57,5.9,81,10.06,0.0,1021.00,0.0
2018-09-23 22:40,50.6304466666667,-96.9807716666667,16.1,21.4,86,993.49,5.8,83,10.04,0.0,1020.91,0.0
2018-09-23 22:50,50.6304433333333,-96.9807733333333,16.2,21.5,87,993.42,5.8,85,10.03,0.0,1020.85,0.0
2018-09-23 23:00,50.6304416666667,-96.9807716666667,17.6,24.3,88,993.36,5.8,85,10.03,0.0,1020.77,360.0
2018-09-23 23:10,50.6304433333333,-96.9807733333333,17.2,22.0,88,993.28,5.8,87,10.02,0.0,1020.70,360.0
2018-09-23 23:20,50.630445,-96.9807716666667,18.3,22.6,85,993.11,5.7,89,10.00,0.0,1020.52,360.0
